SCP
0 0 0 0 0 0 0 0 0 0 1 1 1 1 0 0 0 0 0 0 0 0 0 0 0 0 0 0 0 0 0 0 0 0 0 0 0 0 0 0 0 0 0
0 0 0 0 0 0 0 0 0 0 0 0 0 0 1 0 0 0 0 0 0 0 0 0 0 0 0 0 0 0 0 0 0 0 0 0 0 0 0 0 0 0 0
0 0 0 0 0 0 0 0 0 0 0 0 0 0 0 0 0 0 0 0 0 0 0 0 0 0 0 0 0 0 0 0 0 0 0 0 0 0 0 0 0 0 0
0 0 0 0 0 -0 -0 0 0 0 0 0 0 0 0 0 0 0 0 0 0 0 0 0 0 0 0 0 0 0 0 0 0 0 0 0 0 0 0 0 0 0 0
0 0 0 0 0 -0 -0 -0 -0 0 0 0 0 0 0 0 0 0 0 0 0 0 0 0 0 0 0 0 0 0 0 0 0 0 0 0 0 0 0 0 0 0 0
0 0 0 -0 -0 -0 -0 -0 -0 0 0 0 0 0 0 0 0 0 0 0 0 0 0 0 0 0 0 0 0 0 0 0 0 0 0 0 0 0 0 0 0 0 0
0 0 0 -0 -0 -0 -0 -0 -0 0 0 0 -0 0 0 0 0 0 0 0 0 0 0 0 0 0 0 0 0 0 0 0 0 0 0 0 0 0 0 0 0 0 0
0 0 0 0 0 0 -0 -0 -0 -0 -0 -0 -0 0 0 0 0 0 0 0 0 0 0 0 0 0 0 0 0 0 0 0 0 0 0 0 -0 -0 -0 0 0 0 -0
0 0 0 0 0 -0 0 -0 -0 -0 0 -0 -0 0 0 0 0 0 0 0 0 0 0 0 0 0 0 0 0 -0 -0 -0 -0 -0 -0 0 0 0 0 0 0 0 0
0 -0 -0 -0 0 0 -0 -0 0 0 0 -0 -0 -0 0 0 0 0 0 0 0 0 0 0 0 0 -0 -0 -0 -0 -0 -0 -0 0 0 0 0 0 0 0 0 0 0
0 0 -0 -0 0 0 0 -0 -0 0 0 0 0 0 -0 -0 -0 0 -0 -0 -0 -0 -0 -0 -0 -0 -0 -0 -0 -0 -0 -0 -0 0 0 0 0 0 0 0 0 0 0
0 0 0 -0 -0 -0 -0 0 0 -0 -0 -0 -0 -0 -0 -0 -0 -0 0 -0 -0 -0 -0 -0 -0 -0 -0 -0 -0 -0 -0 0 0 0 0 0 0 0 0 0 0 0 0
0 0 0 0 0 -0 -0 0 -0 -0 -0 -0 -0 -0 -0 -0 -0 -0 -0 -0 -0 -0 -0 -0 -0 -0 -0 -0 -0 -0 -0 0 0 0 0 0 0 0 0 0 0 0 0
0 0 0 0 0 0 0 0 0 0 0 0 0 0 0 -0 -0 -0 -0 -0 -0 -0 -0 -0 -0 -0 -0 -0 -0 -0 0 0 0 0 0 0 0 0 0 0 0 0 0
0 0 0 0 0 0 0 0 0 0 0 0 0 -0 0 0 0 0 0 0 0 0 0 -0 -0 -0 -0 -0 -0 0 0 0 0 0 0 0 0 0 0 0 0 0 0
0 0 0 0 0 0 0 0 -0 0 0 -0 -0 -0 -0 0 0 0 0 0 0 0 -0 -0 -0 -0 -0 -0 0 0 0 0 0 0 0 0 0 0 0 0 0 0 0
0 0 0 0 0 0 0 0 0 0 0 0 -0 -0 0 0 -0 0 0 0 -0 -0 -0 -0 -0 -0 0 0 0 0 0 0 0 0 0 0 0 0 0 0 0 0 0
0 0 0 0 0 0 0 -0 -0 -0 0 0 0 0 -0 -0 0 0 -0 -0 -0 -0 -0 -0 -0 0 0 0 0 0 0 0 0 0 0 0 0 0 0 0 0 0 0
0 0 0 0 0 0 0 0 -0 -0 0 -0 -0 -0 -0 -0 -0 -0 -0 -0 -0 -0 -0 0 0 0 0 0 0 0 0 0 0 0 0 0 0 0 0 0 0 0 0
0 0 0 0 0 0 0 0 0 0 0 -0 -0 -0 -0 -0 -0 -0 -0 -0 -0 -0 -0 0 0 0 0 0 0 0 0 0 0 0 0 0 0 0 0 0 0 0 0
0 0 0 0 0 0 0 0 0 0 -0 -0 -0 -0 -0 -0 -0 -0 -0 -0 -0 -0 0 0 0 0 0 0 0 0 0 0 0 0 0 0 0 0 0 0 0 0 0
0 0 0 0 0 0 0 0 0 0 0 -0 -0 0 0 -0 0 0 0 0 0 -0 -0 -0 -0 0 0 0 0 0 0 0 0 0 0 0 0 0 0 0 0 0 0
0 0 0 0 0 0 0 0 0 0 0 0 0 0 0 0 0 0 0 0 0 -0 -0 0 0 0 0 0 0 0 0 0 0 0 0 0 0 0 0 0 0 0 0
0 0 0 0 0 0 0 0 0 0 0 0 0 0 0 0 0 0 0 0 0 0 0 0 0 0 0 0 0 0 0 0 0 0 0 0 0 0 0 0 0 0 0
0 0 0 0 0 0 0 0 0 0 0 0 0 0 0 0 0 0 0 0 0 0 0 0 0 0 0 0 0 0 0 0 0 0 0 0 0 0 0 0 0 0 0
0 0 0 0 0 0 0 0 0 0 0 0 0 0 0 0 0 0 0 0 0 0 0 0 0 0 0 0 0 0 0 0 0 0 0 0 0 0 0 0 0 0 0
Wind_Speed_500mb
56 49 42 42 38 35 32 27 38 42 47 52 66 76 89 86 77 69 70 52 41 42 39 41 43 41 40 37 36 35 31 34 35 42 44 45 43 45 49 52 53 52 58
55 56 48 45 34 34 31 23 18 26 40 47 50 67 81 82 86 66 61 49 42 34 29 39 36 37 39 39 39 39 39 40 41 44 48 47 43 49 50 53 56 61 61
52 57 60 56 40 33 31 30 24 28 38 45 47 46 49 79 82 69 62 51 44 35 33 35 32 31 31 35 37 42 45 47 46 48 43 17 13 22 31 40 43 50 53
54 63 62 60 56 43 36 26 21 23 37 30 36 55 52 47 67 56 56 52 49 46 46 49 47 46 44 40 40 43 44 51 52 47 43 46 47 32 10 7 6 4 8
58 62 61 56 60 54 51 56 40 6 24 34 15 36 59 60 56 55 57 55 52 48 49 51 52 50 55 51 45 45 44 45 51 44 31 21 13 9 9 7 7 3 5
53 59 62 62 57 57 64 68 72 59 15 3 17 33 37 33 40 55 53 46 51 54 45 43 54 45 26 29 25 20 19 11 13 9 19 7 9 8 6 3 10 8 4
39 44 50 64 65 63 62 67 75 79 73 66 59 44 34 41 50 46 41 40 38 33 36 33 37 35 32 26 17 14 8 11 13 11 10 7 14 9 12 23 25 19 26
30 32 38 39 46 56 60 64 70 70 64 66 72 75 79 70 66 67 65 64 59 54 49 43 38 38 34 32 29 30 23 17 14 12 11 11 11 15 16 10 5 1 9
29 31 38 38 40 42 47 54 61 62 59 58 57 65 71 73 68 71 65 62 56 53 49 49 49 45 39 34 29 25 17 3 7 12 17 18 20 26 20 18 18 23 27
20 27 35 39 39 38 34 35 42 44 44 48 56 63 62 57 55 55 56 58 58 51 50 49 30 22 15 7 6 6 6 8 9 8 10 11 10 12 14 18 23 26 33
15 22 27 33 35 37 40 41 38 37 40 41 43 44 45 41 37 44 42 36 31 27 26 24 20 16 12 11 11 10 8 8 8 9 11 12 14 15 17 19 23 25 29
11 16 23 27 32 36 39 41 40 39 38 37 38 41 41 40 38 39 39 35 30 27 28 27 24 24 21 20 18 15 12 13 14 14 14 15 16 18 20 23 24 26 29
10 12 16 22 27 31 34 36 39 39 38 35 36 37 38 39 38 37 37 34 34 33 32 31 28 28 25 23 21 20 19 20 21 21 22 24 25 27 29 30 30 31 32
11 11 14 18 23 26 28 31 34 35 35 35 36 38 39 38 38 37 37 34 36 33 32 29 28 26 25 23 22 21 22 23 25 26 28 29 30 32 34 35 36 38 39
22 15 13 15 18 19 23 24 28 32 33 33 37 40 38 37 35 33 33 33 32 31 29 27 25 25 24 23 24 25 26 28 30 32 34 35 37 38 40 41 42 44 45
27 17 12 14 15 17 18 20 25 29 30 34 39 39 36 35 34 34 33 32 32 31 27 26 26 27 26 27 29 31 32 34 35 35 37 39 41 43 45 47 48 48 48
34 26 18 13 10 12 17 17 21 23 24 27 30 32 31 30 30 30 28 26 26 26 28 28 27 26 26 28 31 33 35 36 39 41 43 42 44 47 49 49 47 48 51
36 29 24 20 14 11 13 16 19 20 18 18 20 22 23 22 23 23 23 26 25 24 25 27 30 32 34 35 36 39 41 43 44 46 46 48 47 50 51 52 54 56 58
38 28 23 22 19 16 17 18 16 17 16 15 16 17 17 16 17 14 17 20 21 23 26 28 30 31 33 38 43 48 52 54 52 51 52 54 54 51 52 58 60 61 61
40 36 30 25 21 21 20 19 17 16 14 14 14 13 12 11 12 15 21 23 24 27 27 27 32 37 40 47 51 56 61 66 70 64 62 59 59 56 53 57 61 65 63
48 40 34 25 24 25 23 21 18 16 16 14 11 9 9 11 13 17 22 24 25 28 34 36 36 39 44 49 53 57 61 64 69 73 75 73 62 54 53 54 60 61 62
55 47 39 34 32 29 25 22 21 19 17 14 10 6 5 9 14 17 18 22 28 35 39 42 44 43 42 44 48 53 60 65 70 73 71 65 61 51 49 52 52 54 53
59 49 41 39 39 33 29 26 25 21 18 13 9 3 2 4 8 14 21 28 34 39 42 46 50 50 51 58 62 65 66 67 69 68 71 64 50 47 49 47 43 44 47
63 54 49 45 43 38 32 30 27 24 20 17 11 7 5 9 16 22 27 33 36 41 45 49 53 59 60 63 64 67 69 68 67 66 63 56 47 44 43 43 40 41 37
67 60 54 49 45 40 36 34 30 27 24 20 16 11 9 12 17 23 28 33 40 43 45 48 53 60 61 61 63 65 66 63 61 60 51 48 47 43 39 41 39 33 35
71 64 56 51 48 44 41 38 34 29 28 24 18 14 14 15 18 22 29 34 35 37 40 43 50 53 55 55 55 55 54 53 52 47 39 40 37 33 34 36 35 30 32
Wind_Direction_500mb
350 352 359 346 335 319 306 281 264 249 246 243 247 243 228 227 216 217 214 209 217 237 236 238 236 235 240 243 242 238 240 248 257 268 273 274 272 270 268 266 265 266 261
357 -0 7 360 358 341 327 298 259 253 244 245 253 247 232 225 212 208 207 206 214 220 234 240 239 240 243 244 240 238 243 251 256 262 272 277 275 270 271 268 264 262 261
13 7 8 12 13 16 357 330 284 245 243 236 249 243 219 222 219 198 204 208 212 218 230 233 236 247 250 251 250 247 247 258 262 261 267 269 240 263 257 255 251 247 243
12 15 9 11 18 28 34 15 326 260 247 224 232 237 230 222 221 200 205 203 210 218 231 238 239 240 239 241 245 248 248 247 258 266 272 273 284 273 246 260 257 12 330
18 23 19 17 20 30 48 60 61 327 255 233 225 240 218 231 221 197 203 207 213 221 229 238 245 248 248 243 250 261 262 251 259 260 260 264 250 229 253 226 222 265 295
21 26 29 24 25 32 46 60 65 63 59 300 189 238 225 208 195 192 198 208 214 230 239 248 250 253 231 234 218 215 234 233 241 249 265 294 252 251 267 240 229 264 325
15 15 24 24 21 29 42 49 61 62 67 78 96 112 160 153 146 162 160 158 144 143 152 154 142 159 146 145 136 113 101 94 91 85 74 40 350 357 59 65 45 27 28
27 27 26 32 28 25 32 49 59 64 66 63 67 78 89 93 94 97 95 94 88 83 85 88 88 88 85 80 74 64 60 51 47 18 4 32 48 65 58 285 320 9 255
31 37 40 47 48 38 39 42 52 65 69 79 79 79 77 82 84 88 88 88 86 83 81 75 67 67 65 64 80 85 77 60 294 295 304 301 295 276 272 273 274 262 265
47 44 47 49 46 53 56 58 60 59 62 73 78 80 84 87 89 88 86 86 84 78 75 73 76 74 70 54 33 20 4 352 340 321 302 304 301 291 281 274 269 262 259
59 61 59 60 59 59 59 61 65 67 70 72 75 82 84 87 86 88 91 92 92 86 82 80 78 77 71 68 58 45 23 5 359 347 335 324 311 303 296 288 278 271 265
78 67 61 59 60 56 57 61 65 66 68 72 76 78 83 86 87 91 93 94 95 91 87 84 79 76 68 58 54 43 31 17 6 354 342 330 318 306 301 295 291 285 276
127 97 80 70 65 61 59 58 63 65 68 71 76 80 81 83 83 83 81 81 79 75 72 70 68 64 59 52 43 32 19 8 0 349 341 333 322 312 304 298 292 288 283
158 130 102 82 74 70 64 65 66 67 70 77 82 82 81 80 79 78 79 81 77 74 71 65 59 56 47 37 27 13 3 352 345 339 331 323 315 309 301 297 293 286 283
179 166 141 111 92 77 74 73 73 74 72 78 83 82 82 82 82 83 81 78 79 74 69 62 53 44 34 21 11 360 351 343 339 333 326 319 313 308 303 299 296 293 291
184 177 159 141 119 101 91 86 80 77 77 78 80 81 82 83 83 80 76 71 68 62 56 50 41 31 21 10 2 354 347 340 333 329 321 316 312 307 302 299 298 295 293
186 180 173 158 136 112 102 105 102 92 86 84 86 87 86 85 82 79 77 73 63 52 42 31 23 14 6 357 350 346 340 335 332 328 326 323 318 312 306 303 300 298 295
196 185 177 173 167 146 132 127 112 110 109 107 100 95 91 87 81 72 63 53 43 33 25 16 8 0 353 346 339 333 329 328 325 321 322 319 318 313 309 305 304 301 299
198 190 181 176 170 167 159 147 135 131 127 125 116 111 105 94 81 75 62 49 34 24 15 5 1 356 348 339 335 331 328 325 323 319 319 316 312 311 307 304 307 304 302
196 191 186 185 178 170 166 158 154 147 141 139 134 125 108 86 68 54 44 31 17 8 5 1 354 346 341 336 330 325 322 322 320 318 314 308 303 302 301 300 301 301 301
194 193 193 190 183 175 171 168 172 170 168 165 154 130 98 71 51 38 27 13 3 357 354 348 344 336 328 324 321 322 323 323 325 324 322 318 310 298 297 297 299 301 301
195 197 194 192 188 183 188 187 185 184 181 175 169 144 78 46 34 21 1 353 352 351 342 338 337 333 326 323 324 327 330 330 328 327 327 322 319 320 309 306 306 304 300
198 199 197 196 193 195 197 197 191 193 196 197 191 155 53 13 4 354 347 346 347 342 336 335 333 334 337 337 335 334 331 327 325 325 320 320 323 321 315 310 307 304 296
200 200 197 200 201 202 203 199 201 202 208 204 203 213 274 330 342 341 347 343 339 337 336 335 335 336 337 335 334 331 328 329 328 326 323 327 332 322 326 334 322 308 296
201 204 205 201 203 209 207 203 208 212 213 214 222 238 280 317 329 334 338 340 337 336 337 335 337 334 335 337 335 334 334 335 334 329 334 333 331 329 339 341 336 314 298
204 206 207 204 202 208 209 208 212 219 217 219 230 249 282 305 318 332 337 336 336 335 331 334 337 336 334 336 337 338 340 341 341 340 343 333 333 338 346 350 349 335 315
Wind_Speed_850mb
56 49 42 42 38 35 32 27 38 42 47 52 66 76 89 86 77 69 70 52 41 42 39 41 43 41 40 37 36 35 31 34 35 42 44 45 43 45 49 52 53 52 58
55 56 48 45 34 34 31 23 18 26 40 47 50 67 81 82 86 66 61 49 42 34 29 39 36 37 39 39 39 39 39 40 41 44 48 47 43 49 50 53 56 61 61
52 57 60 56 40 33 31 30 24 28 38 45 47 46 49 79 82 69 62 51 44 35 33 35 32 31 31 35 37 42 45 47 46 48 43 17 13 22 31 40 43 50 53
54 63 62 60 56 43 36 26 21 23 37 30 36 55 52 47 67 56 56 52 49 46 46 49 47 46 44 40 40 43 44 51 52 47 43 46 47 32 10 7 6 4 8
58 62 61 56 60 54 51 56 40 6 24 34 15 36 59 60 56 55 57 55 52 48 49 51 52 50 55 51 45 45 44 45 51 44 31 21 13 9 9 7 7 3 5
53 59 62 62 57 57 64 68 72 59 15 3 17 33 37 33 40 55 53 46 51 54 45 43 54 45 26 29 25 20 19 11 13 9 19 7 9 8 6 3 10 8 4
39 44 50 64 65 63 62 67 75 79 73 66 59 44 34 41 50 46 41 40 38 33 36 33 37 35 32 26 17 14 8 11 13 11 10 7 14 9 12 23 25 19 26
30 32 38 39 46 56 60 64 70 70 64 66 72 75 79 70 66 67 65 64 59 54 49 43 38 38 34 32 29 30 23 17 14 12 11 11 11 15 16 10 5 1 9
29 31 38 38 40 42 47 54 61 62 59 58 57 65 71 73 68 71 65 62 56 53 49 49 49 45 39 34 29 25 17 3 7 12 17 18 20 26 20 18 18 23 27
20 27 35 39 39 38 34 35 42 44 44 48 56 63 62 57 55 55 56 58 58 51 50 49 30 22 15 7 6 6 6 8 9 8 10 11 10 12 14 18 23 26 33
15 22 27 33 35 37 40 41 38 37 40 41 43 44 45 41 37 44 42 36 31 27 26 24 20 16 12 11 11 10 8 8 8 9 11 12 14 15 17 19 23 25 29
11 16 23 27 32 36 39 41 40 39 38 37 38 41 41 40 38 39 39 35 30 27 28 27 24 24 21 20 18 15 12 13 14 14 14 15 16 18 20 23 24 26 29
10 12 16 22 27 31 34 36 39 39 38 35 36 37 38 39 38 37 37 34 34 33 32 31 28 28 25 23 21 20 19 20 21 21 22 24 25 27 29 30 30 31 32
11 11 14 18 23 26 28 31 34 35 35 35 36 38 39 38 38 37 37 34 36 33 32 29 28 26 25 23 22 21 22 23 25 26 28 29 30 32 34 35 36 38 39
22 15 13 15 18 19 23 24 28 32 33 33 37 40 38 37 35 33 33 33 32 31 29 27 25 25 24 23 24 25 26 28 30 32 34 35 37 38 40 41 42 44 45
27 17 12 14 15 17 18 20 25 29 30 34 39 39 36 35 34 34 33 32 32 31 27 26 26 27 26 27 29 31 32 34 35 35 37 39 41 43 45 47 48 48 48
34 26 18 13 10 12 17 17 21 23 24 27 30 32 31 30 30 30 28 26 26 26 28 28 27 26 26 28 31 33 35 36 39 41 43 42 44 47 49 49 47 48 51
36 29 24 20 14 11 13 16 19 20 18 18 20 22 23 22 23 23 23 26 25 24 25 27 30 32 34 35 36 39 41 43 44 46 46 48 47 50 51 52 54 56 58
38 28 23 22 19 16 17 18 16 17 16 15 16 17 17 16 17 14 17 20 21 23 26 28 30 31 33 38 43 48 52 54 52 51 52 54 54 51 52 58 60 61 61
40 36 30 25 21 21 20 19 17 16 14 14 14 13 12 11 12 15 21 23 24 27 27 27 32 37 40 47 51 56 61 66 70 64 62 59 59 56 53 57 61 65 63
48 40 34 25 24 25 23 21 18 16 16 14 11 9 9 11 13 17 22 24 25 28 34 36 36 39 44 49 53 57 61 64 69 73 75 73 62 54 53 54 60 61 62
55 47 39 34 32 29 25 22 21 19 17 14 10 6 5 9 14 17 18 22 28 35 39 42 44 43 42 44 48 53 60 65 70 73 71 65 61 51 49 52 52 54 53
59 49 41 39 39 33 29 26 25 21 18 13 9 3 2 4 8 14 21 28 34 39 42 46 50 50 51 58 62 65 66 67 69 68 71 64 50 47 49 47 43 44 47
63 54 49 45 43 38 32 30 27 24 20 17 11 7 5 9 16 22 27 33 36 41 45 49 53 59 60 63 64 67 69 68 67 66 63 56 47 44 43 43 40 41 37
67 60 54 49 45 40 36 34 30 27 24 20 16 11 9 12 17 23 28 33 40 43 45 48 53 60 61 61 63 65 66 63 61 60 51 48 47 43 39 41 39 33 35
71 64 56 51 48 44 41 38 34 29 28 24 18 14 14 15 18 22 29 34 35 37 40 43 50 53 55 55 55 55 54 53 52 47 39 40 37 33 34 36 35 30 32
Wind_Direction_850mb
350 352 359 346 335 319 306 281 264 249 246 243 247 243 228 227 216 217 214 209 217 237 236 238 236 235 240 243 242 238 240 248 257 268 273 274 272 270 268 266 265 266 261
357 -0 7 360 358 341 327 298 259 253 244 245 253 247 232 225 212 208 207 206 214 220 234 240 239 240 243 244 240 238 243 251 256 262 272 277 275 270 271 268 264 262 261
13 7 8 12 13 16 357 330 284 245 243 236 249 243 219 222 219 198 204 208 212 218 230 233 236 247 250 251 250 247 247 258 262 261 267 269 240 263 257 255 251 247 243
12 15 9 11 18 28 34 15 326 260 247 224 232 237 230 222 221 200 205 203 210 218 231 238 239 240 239 241 245 248 248 247 258 266 272 273 284 273 246 260 257 12 330
18 23 19 17 20 30 48 60 61 327 255 233 225 240 218 231 221 197 203 207 213 221 229 238 245 248 248 243 250 261 262 251 259 260 260 264 250 229 253 226 222 265 295
21 26 29 24 25 32 46 60 65 63 59 300 189 238 225 208 195 192 198 208 214 230 239 248 250 253 231 234 218 215 234 233 241 249 265 294 252 251 267 240 229 264 325
15 15 24 24 21 29 42 49 61 62 67 78 96 112 160 153 146 162 160 158 144 143 152 154 142 159 146 145 136 113 101 94 91 85 74 40 350 357 59 65 45 27 28
27 27 26 32 28 25 32 49 59 64 66 63 67 78 89 93 94 97 95 94 88 83 85 88 88 88 85 80 74 64 60 51 47 18 4 32 48 65 58 285 320 9 255
31 37 40 47 48 38 39 42 52 65 69 79 79 79 77 82 84 88 88 88 86 83 81 75 67 67 65 64 80 85 77 60 294 295 304 301 295 276 272 273 274 262 265
47 44 47 49 46 53 56 58 60 59 62 73 78 80 84 87 89 88 86 86 84 78 75 73 76 74 70 54 33 20 4 352 340 321 302 304 301 291 281 274 269 262 259
59 61 59 60 59 59 59 61 65 67 70 72 75 82 84 87 86 88 91 92 92 86 82 80 78 77 71 68 58 45 23 5 359 347 335 324 311 303 296 288 278 271 265
78 67 61 59 60 56 57 61 65 66 68 72 76 78 83 86 87 91 93 94 95 91 87 84 79 76 68 58 54 43 31 17 6 354 342 330 318 306 301 295 291 285 276
127 97 80 70 65 61 59 58 63 65 68 71 76 80 81 83 83 83 81 81 79 75 72 70 68 64 59 52 43 32 19 8 0 349 341 333 322 312 304 298 292 288 283
158 130 102 82 74 70 64 65 66 67 70 77 82 82 81 80 79 78 79 81 77 74 71 65 59 56 47 37 27 13 3 352 345 339 331 323 315 309 301 297 293 286 283
179 166 141 111 92 77 74 73 73 74 72 78 83 82 82 82 82 83 81 78 79 74 69 62 53 44 34 21 11 360 351 343 339 333 326 319 313 308 303 299 296 293 291
184 177 159 141 119 101 91 86 80 77 77 78 80 81 82 83 83 80 76 71 68 62 56 50 41 31 21 10 2 354 347 340 333 329 321 316 312 307 302 299 298 295 293
186 180 173 158 136 112 102 105 102 92 86 84 86 87 86 85 82 79 77 73 63 52 42 31 23 14 6 357 350 346 340 335 332 328 326 323 318 312 306 303 300 298 295
196 185 177 173 167 146 132 127 112 110 109 107 100 95 91 87 81 72 63 53 43 33 25 16 8 0 353 346 339 333 329 328 325 321 322 319 318 313 309 305 304 301 299
198 190 181 176 170 167 159 147 135 131 127 125 116 111 105 94 81 75 62 49 34 24 15 5 1 356 348 339 335 331 328 325 323 319 319 316 312 311 307 304 307 304 302
196 191 186 185 178 170 166 158 154 147 141 139 134 125 108 86 68 54 44 31 17 8 5 1 354 346 341 336 330 325 322 322 320 318 314 308 303 302 301 300 301 301 301
194 193 193 190 183 175 171 168 172 170 168 165 154 130 98 71 51 38 27 13 3 357 354 348 344 336 328 324 321 322 323 323 325 324 322 318 310 298 297 297 299 301 301
195 197 194 192 188 183 188 187 185 184 181 175 169 144 78 46 34 21 1 353 352 351 342 338 337 333 326 323 324 327 330 330 328 327 327 322 319 320 309 306 306 304 300
198 199 197 196 193 195 197 197 191 193 196 197 191 155 53 13 4 354 347 346 347 342 336 335 333 334 337 337 335 334 331 327 325 325 320 320 323 321 315 310 307 304 296
200 200 197 200 201 202 203 199 201 202 208 204 203 213 274 330 342 341 347 343 339 337 336 335 335 336 337 335 334 331 328 329 328 326 323 327 332 322 326 334 322 308 296
201 204 205 201 203 209 207 203 208 212 213 214 222 238 280 317 329 334 338 340 337 336 337 335 337 334 335 337 335 334 334 335 334 329 334 333 331 329 339 341 336 314 298
204 206 207 204 202 208 209 208 212 219 217 219 230 249 282 305 318 332 337 336 336 335 331 334 337 336 334 336 337 338 340 341 341 340 343 333 333 338 346 350 349 335 315